Lapse_Rate
6.8 6.9 6.6 6.6 6.3 6.0 5.7 5.3 5.1 3.5 2.5 1.6 1.0 0.7 0.1 -0.6 -0.5 5.9 8.6 6.1 5.6 3.0 2.6 7.5 7.9 8.9 8.9 8.1 8.2 8.0 6.5 6.5 6.5 6.5 6.5 7.2 6.6 7.7 8.2 7.7 8.1 8.3 8.2 8.6 9.2
6.5 6.6 6.7 6.4 5.9 5.5 5.2 4.8 4.5 3.2 2.5 1.5 0.8 0.5 -0.1 -0.9 5.5 8.8 5.2 4.0 3.5 3.1 8.3 8.7 8.2 8.5 7.8 7.7 7.7 6.8 6.5 6.5 6.6 6.6 6.5 6.9 7.0 7.2 7.1 7.2 7.3 7.9 8.6 9.0 9.1
6.2 6.5 6.2 5.9 5.3 5.3 5.0 4.4 3.9 2.8 2.3 1.4 0.6 -0.0 -0.6 0.1 8.1 8.4 4.1 3.6 3.4 3.5 7.9 8.1 8.7 8.2 7.2 7.6 7.3 6.9 6.5 6.5 6.8 7.2 7.3 6.9 7.0 7.6 6.9 6.5 7.4 7.4 8.0 8.6 8.8
6.1 6.0 5.8 5.4 5.3 5.2 4.7 4.1 3.3 2.5 2.1 1.2 0.3 -0.3 -0.6 5.1 6.5 9.0 4.3 3.6 3.6 6.0 8.6 8.7 8.3 7.3 6.7 6.5 7.4 6.5 6.9 7.0 7.1 7.4 7.2 6.8 7.4 7.1 7.3 7.3 8.2 8.3 8.5 8.6 8.6
5.8 5.6 5.3 5.2 4.9 4.7 4.0 3.7 2.8 2.3 1.8 0.6 -0.1 -0.3 3.5 7.2 8.0 8.1 5.7 6.8 7.9 7.9 8.7 8.2 7.7 7.4 6.5 6.8 7.0 6.5 6.7 7.2 7.4 7.4 7.3 7.5 6.9 7.0 7.3 8.1 8.5 8.5 8.5 8.4 8.6
5.4 5.2 5.0 4.9 4.5 3.9 3.4 3.1 2.1 2.0 1.2 0.1 -0.2 -1.0 5.0 6.9 8.2 8.3 7.7 8.3 8.3 9.0 8.7 8.5 8.0 8.1 7.2 6.9 6.6 7.1 7.0 7.0 7.3 7.2 7.4 6.8 6.9 7.2 7.5 8.2 8.1 8.2 8.2 8.5 8.5
4.9 4.8 4.8 4.6 3.8 3.1 3.0 2.3 1.5 1.5 0.5 -0.2 -0.3 3.4 8.1 7.9 8.3 8.4 8.6 7.7 7.8 9.0 8.3 8.5 8.6 7.9 7.7 6.6 7.6 7.2 6.5 6.5 6.8 7.1 6.7 7.3 6.5 6.5 7.8 8.1 7.8 8.0 8.3 8.4 8.5
4.5 4.5 4.4 3.9 3.0 2.7 2.4 1.3 1.1 0.9 0.2 -0.1 -0.2 5.6 7.7 8.0 9.4 9.2 9.3 9.0 8.3 8.0 7.8 7.3 8.8 8.1 7.5 7.8 7.1 6.5 6.5 6.5 6.5 6.8 7.0 6.9 6.5 6.7 7.9 7.7 7.4 7.8 8.1 8.2 8.4
4.1 4.0 3.5 3.1 2.4 2.4 1.4 0.9 1.1 0.9 0.6 0.6 4.7 7.6 7.4 7.0 8.9 9.0 9.5 8.8 9.0 8.9 7.9 7.8 8.6 7.5 7.4 6.5 6.5 6.5 6.5 6.5 6.5 6.9 6.5 6.5 6.5 6.9 7.8 7.6 7.4 7.7 7.9 8.1 8.3
3.5 3.2 2.7 2.2 2.3 1.2 0.7 0.7 1.5 1.4 2.8 6.0 7.5 7.9 8.1 7.9 8.8 8.5 9.6 8.9 8.5 8.4 8.0 7.9 7.5 6.5 6.5 6.5 6.5 6.5 6.5 6.5 6.5 6.5 6.5 6.5 6.5 6.5 7.4 7.5 7.3 7.6 7.8 8.0 8.2
2.7 2.1 2.0 2.3 1.1 0.7 2.0 7.1 8.0 8.1 8.7 7.7 7.7 7.7 8.2 9.0 8.3 8.9 8.8 8.7 8.5 7.8 6.5 7.1 6.5 6.5 6.5 6.5 6.5 6.5 6.5 6.5 6.5 6.5 6.5 6.5 6.5 6.5 7.1 7.3 7.2 7.5 7.7 7.9 8.1
1.7 2.1 2.0 0.8 0.5 0.6 4.8 8.6 7.5 7.6 7.1 8.4 8.3 8.3 8.7 8.9 7.6 8.3 9.2 7.6 7.2 6.5 6.7 6.5 6.5 6.5 6.5 6.5 6.5 6.5 6.5 6.5 6.5 6.5 6.5 6.5 6.5 6.5 6.8 7.0 7.3 7.4 7.6 7.8 8.1
1.6 1.2 0.5 0.3 0.5 3.0 9.1 8.7 6.5 7.0 7.1 7.5 8.2 8.0 8.1 8.5 7.4 7.6 8.4 7.8 6.7 6.5 6.5 6.5 6.5 6.7 6.5 6.5 6.5 6.5 6.5 6.5 6.5 6.5 6.5 6.5 6.5 6.5 6.5 7.2 7.5 7.7 7.9 8.0 8.0
0.6 0.2 0.2 0.3 1.4 9.1 8.8 7.0 6.3 6.7 6.5 6.5 7.0 7.8 8.3 8.2 7.0 8.3 8.1 7.8 6.8 6.5 6.5 6.5 6.7 6.5 6.5 6.5 6.5 6.5 6.5 6.5 6.5 6.5 6.5 6.5 6.5 6.5 6.5 6.5 6.8 7.3 7.7 7.9 8.0
0.5 0.3 0.5 -1.6 8.9 8.6 7.2 6.5 6.8 7.9 6.5 6.5 6.9 8.9 8.4 7.2 7.4 7.5 7.4 7.9 6.5 6.5 6.5 6.5 6.5 6.5 6.5 6.5 6.5 6.5 6.5 6.5 6.5 6.5 6.5 6.5 6.5 6.5 6.5 6.5 6.5 7.1 7.5 7.9 8.1
0.5 0.8 1.0 4.5 8.1 7.0 6.2 6.5 7.3 6.5 6.5 6.5 6.9 6.6 6.7 7.1 7.1 7.6 7.6 8.1 7.6 6.5 6.5 6.5 7.2 6.6 6.5 6.5 6.5 6.5 6.5 6.5 6.5 6.5 6.5 6.5 6.5 6.5 6.5 6.5 6.5 7.0 7.5 7.8 8.1
1.0 0.9 1.5 6.6 8.3 5.8 6.3 8.2 6.5 6.5 6.5 6.5 6.5 6.5 6.5 6.5 6.5 6.6 6.5 6.5 6.5 6.5 6.5 6.5 6.5 6.6 6.9 6.5 6.5 6.5 6.5 6.5 6.5 6.5 6.5 6.5 6.5 6.5 6.5 6.5 6.6 6.7 7.4 7.8 8.2
1.2 1.6 4.6 5.7 5.9 5.8 8.3 6.7 6.5 6.5 6.5 6.5 6.5 6.5 6.5 6.5 6.5 6.5 6.5 6.5 6.5 6.5 6.5 6.5 6.5 6.5 6.5 6.5 6.5 6.5 6.5 6.5 6.5 6.5 6.5 6.5 6.5 6.5 6.5 7.0 7.2 7.4 7.6 7.9 8.0
1.0 7.8 9.4 6.7 5.2 6.8 8.0 6.5 6.5 6.5 6.5 6.5 6.5 6.5 6.5 6.5 6.5 6.5 6.5 6.5 6.5 6.5 6.5 6.5 6.5 6.5 6.5 6.6 6.5 6.5 6.5 6.5 6.5 6.5 6.5 6.5 6.5 6.5 6.5 6.5 6.9 7.1 7.5 7.5 7.9
9.3 9.1 8.4 6.1 5.8 8.2 6.7 6.5 6.5 6.7 6.7 6.5 6.5 6.5 6.5 6.5 6.5 6.5 6.5 6.5 6.5 6.7 6.9 6.5 6.5 6.5 6.5 6.8 6.7 6.5 6.5 6.5 6.5 6.5 6.5 6.5 6.5 6.5 6.5 6.5 6.5 6.7 7.2 7.6 7.9
9.1 8.0 7.6 6.3 7.3 8.0 6.5 6.5 6.5 7.2 7.2 6.5 6.5 6.5 6.5 6.5 6.5 6.5 6.5 6.5 6.6 6.5 6.9 6.5 6.5 6.5 6.5 6.5 6.5 6.5 6.5 6.5 6.5 6.5 6.5 6.5 6.5 6.5 6.5 6.5 6.5 6.8 7.3 7.6 7.8
8.7 6.7 7.3 7.2 7.1 7.0 6.5 6.5 4.9 6.8 7.4 6.7 6.7 6.5 6.5 6.5 6.5 6.5 6.5 6.5 7.2 6.9 6.5 6.5 6.5 6.5 6.5 6.5 6.5 6.5 6.5 6.5 6.5 6.5 6.5 6.5 6.5 6.5 6.5 6.7 6.9 7.0 7.3 7.7 7.9
7.9 7.8 7.8 7.9 6.5 6.5 6.7 6.5 6.9 6.5 6.6 6.5 6.5 6.5 6.5 6.5 6.5 6.5 6.5 7.0 7.2 6.7 6.5 6.5 6.5 6.5 6.5 6.5 6.5 6.5 6.5 6.5 6.5 6.5 6.5 6.5 6.5 6.5 6.7 6.7 7.1 7.1 7.5 7.7 8.0
8.1 6.5 7.9 8.4 7.9 6.6 6.5 6.5 6.5 7.3 6.8 7.0 6.6 6.8 6.5 6.5 6.5 6.5 6.5 6.7 7.2 7.0 6.5 6.8 6.5 6.5 6.5 6.5 6.5 6.5 6.5 6.5 6.5 6.5 6.5 6.5 6.5 6.5 6.5 6.5 6.8 7.2 7.5 7.7 7.9
8.1 6.9 6.0 6.5 6.7 6.7 6.6 6.5 6.5 6.5 7.0 7.2 6.5 6.5 6.5 6.5 6.5 6.5 6.5 6.5 6.9 7.1 6.9 6.5 6.5 6.5 6.5 6.5 6.5 6.5 6.5 6.5 6.5 6.5 6.5 6.5 6.5 6.5 6.5 6.5 7.0 7.4 7.5 7.6 7.7
7.5 7.3 7.7 7.1 7.3 6.7 6.5 6.5 6.5 6.5 6.5 6.5 6.5 6.5 6.5 6.5 6.5 6.5 6.5 6.5 6.5 6.7 6.5 6.5 6.5 6.5 6.5 6.5 6.5 6.5 6.5 6.5 6.5 6.5 6.5 6.5 6.5 6.5 7.1 7.3 7.2 7.4 7.4 7.5 7.7
5.7 5.7 7.3 4.7 6.7 6.5 6.5 6.5 6.5 6.8 7.0 7.1 6.8 6.5 6.5 6.6 7.2 7.3 7.4 7.2 6.9 6.5 6.5 6.5 6.5 6.5 6.5 6.5 6.5 6.5 6.5 6.5 6.5 6.5 6.5 6.5 6.5 6.7 6.5 6.8 7.1 7.3 7.5 7.6 7.8
Wind_Speed
2 4 6 5 4 3 4 5 8 9 12 13 14 15 16 19 24 7 1 8 8 16 17 8 7 3 4 1 3 2 4 2 4 2 5 1 3 6 5 11 13 7 9 8 8
3 2 3 4 3 4 5 6 9 9 12 12 14 14 15 17 11 2 6 8 10 12 7 5 2 3 1 1 1 3 4 6 3 3 3 1 5 4 4 4 7 10 10 9 8
3 4 4 3 4 6 7 7 9 9 12 12 13 13 14 15 7 4 8 11 11 11 7 6 5 4 1 1 2 3 4 6 4 3 3 2 3 4 3 6 6 7 9 9 9
2 3 4 4 5 7 7 8 8 9 12 12 13 13 15 6 1 4 9 11 10 8 6 4 4 3 2 2 1 3 6 2 2 2 2 2 5 7 9 6 5 5 5 7 10
2 4 5 6 7 7 7 7 8 10 12 12 12 11 6 5 4 4 8 6 4 3 3 3 4 2 4 2 1 1 5 4 5 5 6 6 4 7 8 6 5 4 5 7 8
6 6 6 7 8 6 7 8 10 10 11 12 11 11 5 5 2 4 6 3 6 3 4 2 3 3 1 1 4 3 3 6 6 6 8 7 7 3 5 6 5 5 6 7 7
8 7 7 8 6 7 6 9 11 11 11 12 10 6 8 4 2 4 1 3 5 3 2 5 3 6 1 3 2 3 6 6 7 7 3 7 7 6 8 7 6 6 6 6 6
8 8 8 6 6 5 8 11 10 11 11 11 8 7 3 2 1 0 1 2 3 5 4 3 3 2 3 3 4 7 6 10 8 8 5 4 4 9 9 9 8 6 7 5 5
9 8 7 5 5 7 11 10 12 11 9 9 6 7 5 4 3 3 3 1 1 1 2 1 3 1 4 5 7 8 10 8 8 6 3 12 4 10 10 10 9 9 8 7 6
8 8 7 5 5 10 11 8 4 8 6 5 5 5 4 4 3 1 2 1 2 2 3 5 4 6 6 7 9 10 6 6 8 8 9 12 14 9 11 11 11 10 9 9 8
8 8 5 4 9 10 8 4 5 4 6 5 5 5 7 6 5 2 1 3 3 6 7 3 6 9 6 3 8 8 9 11 5 4 6 15 12 10 11 12 12 11 11 10 9
7 5 5 8 10 7 6 6 7 5 6 3 3 6 3 1 4 4 3 4 5 8 3 5 11 5 2 2 5 7 10 10 1 2 6 11 14 13 15 14 13 12 12 11 9
5 7 9 9 6 4 5 2 4 5 3 3 2 4 3 4 1 4 6 1 5 6 7 10 5 2 4 5 7 8 9 9 8 3 13 12 17 15 13 12 13 13 12 11 10
8 9 9 6 1 4 2 1 4 4 6 7 4 3 4 1 3 3 5 3 4 7 3 6 6 6 6 8 5 10 4 3 5 7 6 1 6 11 14 14 14 14 13 12 11
9 10 10 13 3 3 3 2 4 4 6 4 5 3 2 3 3 3 2 3 7 3 5 4 3 5 8 3 1 3 1 5 8 11 11 13 5 7 12 12 16 16 16 14 12
10 10 9 6 5 2 2 3 4 5 1 4 3 5 7 3 3 1 1 1 1 4 7 4 0 3 4 1 2 2 6 8 6 7 6 9 7 6 7 10 11 16 16 13 11
8 6 3 4 2 2 3 4 5 6 2 6 3 5 6 4 4 2 2 4 4 5 10 5 8 3 2 6 5 6 7 4 6 5 2 4 5 9 5 4 3 12 14 12 11
9 9 2 3 3 3 5 5 6 5 2 2 3 4 6 3 3 2 3 7 2 5 6 6 6 7 2 4 6 4 6 6 6 6 6 4 6 3 5 4 3 7 11 11 12
8 4 3 3 4 4 6 7 6 4 3 4 4 6 7 5 3 4 3 3 3 3 5 4 3 4 3 2 3 6 5 4 6 8 5 5 6 8 3 5 7 10 11 12 11
3 3 2 5 4 5 5 3 2 3 1 2 5 3 3 5 4 4 4 3 2 2 3 4 4 2 4 2 3 6 4 4 4 5 8 5 7 8 7 7 8 11 13 12 11
5 3 3 2 4 5 6 4 3 2 3 3 3 2 3 2 6 2 3 3 0 1 3 4 3 5 2 7 2 4 4 5 4 5 7 10 4 7 4 2 9 10 11 12 13
1 3 2 3 5 2 3 3 1 3 2 1 3 3 3 1 3 3 1 4 2 2 2 3 4 5 1 4 2 4 6 6 5 5 6 4 12 4 4 3 2 5 5 6 9
2 2 2 3 4 6 3 3 1 3 2 2 3 2 1 2 3 2 1 2 1 1 2 2 3 4 5 3 3 5 7 9 7 3 11 12 11 5 4 3 1 4 8 9 10
2 3 3 4 2 5 5 5 5 1 3 2 1 2 3 4 2 2 4 3 2 1 2 2 4 8 9 6 3 5 6 8 11 7 15 17 21 18 12 5 12 10 7 7 8
2 2 3 3 4 2 2 4 6 4 1 3 3 6 3 3 3 3 2 4 4 5 2 3 6 7 11 11 10 14 16 15 17 22 17 22 21 22 21 17 10 8 5 6 7
2 3 3 2 3 5 3 3 5 3 4 4 3 3 3 2 4 1 2 3 1 5 3 1 3 7 10 2 6 12 18 19 21 21 24 23 22 13 6 9 9 11 10 9 9
1 1 4 3 3 4 2 4 4 5 2 4 1 2 3 3 3 3 2 1 2 2 6 3 3 3 5 1 10 13 8 10 11 11 11 13 13 12 13 11 12 14 10 10 9
Wind_Direction
155 142 142 159 177 226 260 287 292 297 298 301 306 312 318 320 307 227 127 2 327 323 313 283 270 295 248 61 354 300 261 116 76 171 134 66 331 78 34 75 64 59 35 358 350
165 185 175 191 201 251 265 276 283 292 293 298 303 311 317 324 280 162 35 335 313 314 308 331 322 298 185 33 343 308 276 61 58 93 112 84 348 340 249 99 69 53 39 28 33
188 213 219 220 238 261 270 276 280 288 289 296 302 311 315 315 248 78 16 337 312 294 286 299 290 281 252 283 12 14 28 131 96 72 359 311 93 4 146 104 45 41 34 44 46
176 212 225 246 259 263 271 275 281 288 290 297 305 313 314 257 166 55 356 325 296 298 276 285 253 242 242 222 45 186 78 44 108 342 259 210 99 82 42 93 76 60 43 53 62
252 249 252 260 264 263 270 276 283 286 291 299 305 315 293 212 62 30 339 314 292 304 352 316 265 276 244 119 198 295 120 95 109 113 92 119 117 113 99 113 109 91 68 64 67
268 266 267 268 265 275 277 286 284 287 293 298 302 310 241 213 15 1 349 347 24 14 9 356 7 324 91 27 301 99 105 134 148 134 132 135 143 177 141 150 133 124 98 79 70
255 260 267 263 275 276 293 290 287 289 293 295 298 285 244 81 353 348 349 43 18 8 61 35 353 274 232 153 153 162 164 160 179 170 157 151 193 196 149 180 162 148 123 107 99
245 246 259 270 280 298 298 285 284 283 289 285 289 259 58 81 20 47 264 56 38 47 53 14 354 112 302 121 196 232 243 220 153 189 152 219 272 159 173 186 183 168 143 138 115
237 243 253 270 293 310 282 280 273 277 264 272 253 244 120 143 173 56 16 21 66 119 49 339 265 237 179 228 229 205 268 217 166 203 184 209 273 165 184 199 191 195 168 162 140
236 243 253 272 313 278 273 267 281 277 230 220 266 238 168 136 101 34 75 289 251 191 210 226 224 231 226 229 256 317 249 252 264 170 222 239 253 166 196 209 201 196 184 183 174
242 240 255 290 270 267 270 199 189 165 211 359 74 78 128 105 192 101 11 221 226 233 238 183 251 226 268 281 306 290 278 271 276 105 283 254 262 204 200 209 206 201 198 195 189
238 240 256 256 257 261 263 265 23 5 123 77 106 101 88 350 169 109 290 245 218 243 218 221 240 54 342 241 256 259 265 265 163 220 255 276 252 235 195 214 211 205 207 200 191
252 237 232 235 243 236 259 359 335 320 188 117 80 114 112 253 64 47 319 294 267 241 238 272 42 127 210 212 243 241 271 296 285 286 247 283 266 229 187 204 211 217 210 207 209
232 227 222 211 262 153 202 35 303 311 207 138 170 118 165 201 163 359 15 321 229 290 268 278 94 222 233 252 262 271 60 287 284 290 292 226 295 185 184 202 209 212 214 214 215
208 207 215 212 43 211 56 273 286 241 219 126 134 61 150 243 108 107 353 240 286 280 247 64 202 220 242 287 260 25 5 282 284 275 288 244 248 113 171 203 213 212 214 215 216
191 190 195 209 231 39 291 270 248 232 130 132 138 172 190 188 135 110 205 166 339 258 237 301 124 263 339 88 289 45 263 245 270 259 250 229 222 167 174 218 203 203 209 208 215
168 175 222 297 78 334 259 222 214 260 163 142 157 194 224 173 179 252 226 211 270 251 209 182 208 140 252 240 196 235 261 238 212 203 307 122 233 273 121 158 249 194 196 199 204
170 177 119 30 334 292 223 223 256 52 89 91 164 192 219 163 181 211 230 227 169 263 286 256 208 191 119 271 342 215 294 298 303 324 337 156 238 107 81 105 178 181 181 193 200
185 193 171 35 325 261 241 220 2 39 50 171 172 224 189 202 277 230 240 327 35 340 266 292 172 123 43 320 293 135 225 10 294 257 260 239 209 150 160 166 176 178 186 195 210
223 194 107 329 296 244 246 267 59 47 337 276 252 243 263 163 223 208 174 65 121 2 333 31 264 188 119 252 206 269 358 243 201 277 286 274 266 267 165 190 194 200 207 209 214
243 220 79 298 257 227 246 57 102 69 332 288 305 256 267 239 259 235 54 104 275 119 295 313 255 124 197 202 252 174 215 230 301 276 294 300 288 47 50 216 206 224 227 223 221
271 216 46 271 212 260 239 39 353 148 167 226 291 299 273 192 236 247 298 36 45 318 273 38 313 274 360 100 358 300 279 277 264 277 246 273 280 6 70 106 7 318 297 260 252
260 81 126 254 220 192 132 131 141 170 190 206 194 277 208 219 234 247 180 102 135 248 341 39 209 283 176 183 179 241 226 242 285 266 256 273 273 97 107 161 196 298 307 306 288
243 181 147 216 298 304 179 180 159 147 164 217 145 211 194 201 211 178 182 158 179 230 17 303 273 265 282 347 326 248 236 234 235 259 266 262 279 274 279 270 328 332 281 279 275
247 99 353 174 188 185 191 156 157 163 229 216 185 246 240 219 205 216 173 160 187 153 216 271 271 294 288 291 279 272 272 263 237 249 264 281 291 302 317 327 350 341 326 309 289
256 197 180 103 157 177 154 179 192 137 180 171 256 148 210 289 0 27 196 239 319 169 236 155 287 324 290 288 286 278 272 262 259 265 268 276 284 314 34 334 331 325 317 302 301
114 109 288 148 188 227 109 126 148 146 96 31 59 174 201 60 360 27 10 11 333 251 213 241 282 311 276 191 302 278 273 279 260 258 271 281 306 337 323 315 314 314 298 300 308